Theta_e
349 345 346 347 347 347 346 346 346 346 345 345 345 345 346 345 341 340 339 335 338 345 345 344 344 345 349 351 348 347 343 345 347
349 346 344 348 347 347 347 346 346 346 346 346 346 346 346 346 343 339 338 335 337 338 341 342 344 345 345 349 350 348 347 343 344
349 347 348 347 347 348 347 347 347 347 346 346 346 346 346 346 345 342 339 338 336 337 338 343 344 346 348 350 350 349 347 346 342
348 347 349 346 348 348 347 347 347 347 347 346 346 346 346 346 346 346 343 339 337 337 337 340 345 346 348 352 352 350 350 349 348
346 347 348 346 348 348 348 347 348 347 347 347 346 345 346 346 346 346 345 340 336 334 335 337 344 347 348 352 352 353 351 349 349
345 347 347 346 349 348 348 347 348 347 347 347 347 346 347 347 347 347 346 342 337 334 334 335 339 347 347 348 350 350 352 351 349
336 345 346 347 350 349 348 348 348 348 348 348 348 347 346 346 347 347 345 342 339 335 333 334 334 337 345 346 347 349 349 351 352
337 345 348 350 350 350 349 349 349 349 349 349 349 348 347 343 342 344 343 340 338 335 333 333 334 335 338 342 348 350 350 350 349
339 345 349 351 351 350 350 350 349 349 350 350 349 349 349 348 346 342 341 340 337 335 333 332 334 337 337 337 339 346 351 352 351
340 344 348 351 351 351 350 350 350 350 350 350 350 349 349 349 349 348 346 345 344 342 340 336 335 335 338 340 340 341 342 344 347
342 342 344 347 351 351 351 351 351 350 350 350 350 350 350 350 351 351 352 352 353 352 352 351 348 344 341 340 339 341 344 346 348
345 344 342 340 342 349 351 352 352 352 351 351 351 351 351 351 352 352 352 353 355 355 356 356 356 356 355 354 352 350 349 351 352
340 344 344 342 340 338 340 344 353 354 354 353 352 352 352 352 352 353 353 353 354 355 356 356 356 357 356 356 357 357 357 358 358
335 341 345 345 341 339 338 336 337 342 351 355 354 354 354 354 353 354 354 355 356 356 357 357 357 357 357 358 358 359 360 360 361
333 337 346 349 349 348 343 336 334 332 338 343 348 355 355 355 355 356 357 356 356 356 357 358 358 359 359 359 360 360 361 361 362
325 328 339 348 353 355 354 348 334 333 337 338 341 340 343 352 354 355 355 354 353 354 355 358 359 360 360 360 361 361 362 362 363
322 322 329 337 350 354 355 355 357 353 352 349 346 345 343 337 340 346 349 350 350 351 351 352 355 358 361 362 362 362 361 360 360
319 320 321 326 336 349 354 353 352 349 347 353 357 355 350 344 340 338 341 346 351 353 353 354 353 354 357 360 361 360 360 360 361
317 317 317 319 324 330 348 354 353 351 343 340 339 347 356 358 355 352 353 352 353 358 358 357 359 359 361 362 362 360 360 360 362
318 317 319 328 328 325 326 346 350 350 344 339 339 341 351 359 361 364 363 361 361 361 360 360 360 362 360 359 362 363 363 362 361
Wind_Speed
51 47 44 47 53 55 56 59 56 56 55 52 50 46 42 38 37 35 33 31 30 31 26 24 20 21 20 17 18 17 18 19 17
42 48 48 47 50 57 59 59 61 59 57 54 51 48 44 40 39 38 37 34 32 30 29 27 23 23 23 20 18 19 18 19 19
48 49 47 47 51 56 57 63 63 60 58 55 52 49 45 42 40 40 39 37 33 32 31 27 26 23 22 23 19 20 19 18 20
51 53 52 53 49 55 60 61 61 60 58 54 52 48 45 44 43 42 42 41 37 33 30 31 29 27 24 24 26 22 25 23 19
53 56 55 55 47 55 50 51 56 59 57 55 51 46 47 45 43 40 42 43 41 36 35 34 32 30 31 30 23 27 28 27 24
53 56 55 56 46 49 50 52 56 57 57 53 49 46 44 43 43 41 40 42 42 40 37 36 37 33 33 36 34 29 27 29 27
43 52 53 52 49 51 52 56 58 57 55 50 46 46 43 42 42 41 39 37 38 40 38 38 38 40 39 36 35 35 33 29 29
35 45 51 53 51 49 53 54 56 55 53 49 46 45 43 40 37 37 36 36 36 37 38 38 38 40 43 42 41 38 35 34 34
31 41 51 54 55 56 57 57 56 56 53 49 46 44 42 38 38 38 38 36 35 35 37 38 39 41 43 44 45 46 45 42 41
27 30 44 49 53 57 60 58 54 52 51 49 47 44 42 40 39 40 39 38 38 38 37 36 39 42 43 46 46 46 46 45 45
36 31 24 27 36 39 41 44 48 47 46 47 46 44 41 40 39 37 35 36 36 35 37 37 37 39 40 42 43 43 42 42 43
33 34 34 34 28 28 38 34 36 38 40 41 43 45 44 42 41 39 36 38 36 32 33 35 36 36 36 39 40 38 38 37 39
29 30 30 29 30 31 28 19 29 37 40 44 45 44 44 42 41 42 40 38 37 36 37 37 37 38 39 39 39 37 35 35 36
29 27 27 23 22 22 21 20 17 15 29 36 38 42 42 43 42 41 39 40 39 40 41 41 41 41 40 41 40 39 37 35 36
30 29 26 25 23 20 14 11 12 12 11 9 13 23 35 39 44 42 39 37 37 38 40 41 42 43 43 43 42 40 38 35 34
28 29 28 27 22 22 22 13 6 6 3 4 5 6 13 23 28 34 35 36 36 37 37 38 40 41 41 42 41 38 36 34 32
24 26 27 24 23 20 18 16 11 8 2 3 7 9 11 15 20 21 27 32 35 36 37 37 37 39 40 38 37 35 30 28 28
22 22 22 22 22 20 15 11 10 9 9 10 10 12 16 18 22 25 27 29 32 35 34 33 33 33 32 31 29 27 27 26 25
22 20 21 18 15 15 13 9 9 9 11 14 17 17 16 16 17 19 24 26 29 32 33 32 32 29 26 27 26 25 25 24 22
14 18 15 15 15 15 12 10 6 7 12 17 19 18 17 17 14 14 17 21 25 28 28 30 29 25 23 24 25 24 24 23 22
Wind_Direction
199 204 201 204 201 198 203 210 210 211 212 215 219 222 227 230 229 225 223 221 220 222 225 227 227 231 234 236 230 226 225 223 220
201 209 201 207 202 201 202 208 213 215 215 217 220 223 226 229 230 227 226 224 223 224 226 228 230 235 239 239 234 226 232 234 235
203 209 203 204 199 200 203 211 217 217 220 218 220 222 225 229 231 230 230 229 224 223 223 225 226 229 233 237 235 229 225 234 237
200 204 206 204 199 202 205 209 213 218 218 220 220 223 227 229 230 231 232 232 229 227 226 224 229 228 232 238 240 236 233 234 240
198 199 201 205 200 200 200 199 210 218 219 219 222 224 225 229 231 232 233 232 233 229 227 226 227 231 234 239 242 238 237 238 243
193 197 197 201 197 195 199 199 210 218 220 222 222 224 225 229 231 233 232 233 235 235 232 229 228 229 233 236 241 240 236 238 244
175 192 192 193 192 194 200 206 211 216 219 221 223 224 224 227 231 234 235 233 234 236 235 232 231 231 233 237 240 243 243 241 242
167 178 182 187 190 192 201 205 208 215 218 219 222 224 226 227 230 234 237 239 235 235 237 236 235 235 236 238 240 243 244 247 249
162 171 180 186 188 191 199 207 211 214 217 219 221 224 229 231 232 232 234 237 239 238 237 237 238 238 239 241 242 244 247 250 253
155 167 182 186 188 191 200 209 213 212 216 219 222 225 229 232 233 234 236 238 239 241 241 241 240 242 242 244 248 250 252 253 256
89 117 148 179 187 191 196 205 210 214 214 218 222 225 229 233 235 236 237 238 239 242 245 247 249 248 249 250 250 253 253 255 257
82 92 96 96 122 179 197 200 213 216 219 224 225 228 231 234 235 237 239 241 243 244 246 249 253 258 259 257 260 258 258 257 257
67 82 94 101 106 116 124 134 203 217 224 225 228 233 236 237 241 243 245 246 248 251 252 255 258 261 264 267 266 266 266 261 259
57 66 72 88 108 115 118 121 117 163 211 224 234 240 244 246 247 250 254 254 255 253 254 256 258 261 264 266 268 268 268 267 262
50 55 62 66 81 88 100 122 129 119 133 167 219 238 241 246 246 250 253 254 255 256 255 255 257 259 262 264 266 268 270 269 269
38 43 52 57 68 77 77 81 112 151 139 191 213 222 229 237 242 247 251 254 255 254 255 254 257 258 261 264 265 267 270 274 274
21 30 36 45 56 69 73 61 69 83 81 246 263 268 262 248 240 240 244 249 252 253 254 255 256 259 260 262 265 270 275 272 270
3 11 19 27 37 42 52 55 29 20 349 325 310 295 283 273 259 248 247 248 247 248 250 252 256 262 267 267 267 268 265 265 266
347 351 2 5 13 20 28 25 22 6 352 344 329 298 282 273 267 261 259 256 248 242 242 247 253 257 259 261 261 263 263 264 263
354 340 352 359 352 343 354 359 341 339 332 329 331 323 286 272 264 263 256 248 243 241 239 244 246 246 244 253 255 258 255 259 258